Location: Starhoo Observatory
(41.8578°N, 70.9669°W)
Time: 02:13:09
(UTC-04:00)

ISS - Visible Passes

Search period start: 22 September 2014 00:00
Search period end: 02 October 2014 00:00
Orbit: 413 x 416 km, 51.6° (Epoch: 21 September)

Date Brightness Start Highest point End Pass type
(mag) Time Alt. Az. Time Alt. Az. Time Alt. Az.
22 Sep -0.9 04:54:22 13° NNW 04:55:31 15° N 04:57:35 10° NE visible
23 Sep -0.4 04:07:25 15° NNE 04:07:25 15° NNE 04:08:34 10° NNE visible
23 Sep -0.9 05:41:37 10° NNW 05:44:00 18° NNE 05:46:22 10° ENE visible
24 Sep -0.8 04:53:20 13° NNW 04:54:47 16° N 04:56:57 10° NE visible
25 Sep -0.3 04:06:24 14° NNE 04:06:24 14° NNE 04:07:35 10° NE visible
25 Sep -1.4 05:40:12 10° NW 05:43:05 26° NNE 05:45:57 10° E visible
26 Sep -1.0 04:52:21 16° NNW 04:53:52 21° NNE 04:56:27 10° ENE visible
27 Sep -0.4 04:05:29 16° NNE 04:05:29 16° NNE 04:06:54 10° NE visible
27 Sep -2.5 05:38:36 10° NW 05:41:52 50° NNE 05:45:06 10° ESE visible
28 Sep -1.8 04:51:35 26° NNW 04:52:40 33° NNE 04:55:43 10° E visible
29 Sep -0.4 04:04:53 18° ENE 04:04:53 18° ENE 04:06:11 10° ENE visible
29 Sep -3.3 05:37:46 16° WNW 05:40:19 64° SW 05:43:36 10° SE visible
30 Sep -3.2 04:51:12 73° NE 04:51:12 73° NE 04:54:28 10° ESE visible
01 Oct -0.1 04:04:46 12° ESE 04:04:46 12° ESE 04:05:06 10° ESE visible
01 Oct -2.0 05:37:40 21° WSW 05:38:25 23° SW 05:41:07 10° S visible
